| time (UTC) | temp F | wind direction | speed knots | gust knots | rain 1hr in | rain 24hr in | rain mn in | humidity % | barometer mb |
| 20260504081531 | 48 | 22 | 12.2 | 21.7 | 0.00 | 0.00 | 0.00 | 55 | 1013.5 |
| 20260504044535 | 58 | 21 | 19.1 | 27.8 | 0.00 | 0.00 | 0.00 | 39 | 1007.9 |
| 20260504043041 | 58 | 46 | 15.6 | 20.0 | 0.00 | 0.00 | 0.00 | 39 | 1007.5 |
| 20260504041530 | 58 | 42 | 14.8 | 18.2 | 0.00 | 0.00 | 0.00 | 38 | 1007.1 |
| 20260504040030 | 58 | 43 | 12.2 | 18.2 | 0.00 | 0.00 | 0.00 | 39 | 1006.9 |
| 20260504034528 | 58 | 38 | 11.3 | 14.8 | 0.00 | 0.03 | 0.00 | 39 | 1006.6 |
| 20260504033029 | 59 | 40 | 12.2 | 20.9 | 0.00 | 0.03 | 0.00 | 38 | 1006.3 |
| 20260504031532 | 60 | 33 | 15.6 | 23.5 | 0.00 | 0.03 | 0.00 | 38 | 1005.9 |
| 20260504030029 | 61 | 52 | 14.8 | 20.0 | 0.00 | 0.03 | 0.00 | 36 | 1005.5 |
| 20260504024533 | 62 | 49 | 11.3 | 14.8 | 0.00 | 0.03 | 0.00 | 30 | 1005.4 |
| 20260504023031 | 63 | 35 | 8.7 | 11.3 | 0.00 | 0.03 | 0.00 | 27 | 1005.2 |
| 20260504021535 | 66 | 32 | 7.8 | 12.2 | 0.00 | 0.03 | 0.00 | 25 | 1005.3 |
| 20260504020040 | 67 | 25 | 9.6 | 13.0 | 0.00 | 0.03 | 0.00 | 24 | 1005.2 |
| 20260504014537 | 69 | 21 | 10.4 | 15.6 | 0.00 | 0.03 | 0.00 | 23 | 1005.4 |
| 20260504013031 | 71 | 342 | 11.3 | 14.8 | 0.00 | 0.03 | 0.00 | 22 | 1005.4 |
| 20260504011532 | 72 | 12 | 9.6 | 13.0 | 0.00 | 0.03 | 0.00 | 22 | 1005.5 |
| 20260504010032 | 73 | 348 | 10.4 | 18.2 | 0.00 | 0.03 | 0.00 | 22 | 1005.7 |
| 20260504004530 | 73 | 344 | 11.3 | 18.2 | 0.00 | 0.03 | 0.00 | 21 | 1005.7 |
| 20260504003029 | 74 | 360 | 13.9 | 19.1 | 0.00 | 0.03 | 0.00 | 21 | 1005.7 |
| 20260504001535 | 74 | 321 | 13.9 | 20.9 | 0.00 | 0.03 | 0.00 | 21 | 1005.9 |
| 20260504000031 | 75 | 329 | 14.8 | 20.0 | 0.00 | 0.03 | 0.00 | 20 | 1005.9 |
| 20260503234531 | 75 | 334 | 8.7 | 16.5 | 0.00 | 0.03 | 0.00 | 20 | 1005.9 |
| 20260503233027 | 75 | 331 | 14.8 | 19.1 | 0.00 | 0.03 | 0.00 | 20 | 1005.9 |
| 20260503231529 | 75 | 320 | 12.2 | 17.4 | 0.00 | 0.03 | 0.00 | 20 | 1006.0 |
| 20260503230030 | 75 | 336 | 12.2 | 19.1 | 0.00 | 0.03 | 0.00 | 20 | 1006.2 |
| 20260503224530 | 74 | 325 | 10.4 | 15.6 | 0.00 | 0.03 | 0.00 | 20 | 1006.4 |
| 20260503223030 | 75 | 341 | 13.0 | 19.1 | 0.00 | 0.03 | 0.00 | 20 | 1006.7 |
| 20260503221532 | 75 | 310 | 9.6 | 20.0 | 0.00 | 0.03 | 0.00 | 21 | 1006.8 |
| 20260503220030 | 74 | 311 | 9.6 | 20.9 | 0.00 | 0.03 | 0.00 | 20 | 1006.8 |
| 20260503214539 | 74 | 321 | 12.2 | 19.1 | 0.00 | 0.03 | 0.00 | 22 | 1007.1 |
| 20260503213032 | 74 | 321 | 14.8 | 20.0 | 0.00 | 0.03 | 0.00 | 21 | 1007.2 |
| 20260503211529 | 73 | 282 | 7.0 | 17.4 | 0.00 | 0.03 | 0.00 | 21 | 1007.5 |
| 20260503210032 | 73 | 331 | 12.2 | 19.1 | 0.00 | 0.03 | 0.00 | 21 | 1007.9 |
| 20260503204533 | 73 | 299 | 7.8 | 14.8 | 0.00 | 0.03 | 0.00 | 21 | 1008.0 |
| 20260503203031 | 72 | 292 | 8.7 | 20.9 | 0.00 | 0.03 | 0.00 | 21 | 1008.1 |
| 20260503201530 | 72 | 300 | 12.2 | 19.1 | 0.00 | 0.03 | 0.00 | 23 | 1008.4 |
| 20260503200046 | 72 | 323 | 8.7 | 18.2 | 0.00 | 0.03 | 0.00 | 23 | 1008.8 |
| 20260503194532 | 72 | 293 | 11.3 | 19.1 | 0.00 | 0.03 | 0.00 | 24 | 1008.8 |
| 20260503193036 | 70 | 300 | 13.0 | 22.6 | 0.00 | 0.03 | 0.00 | 24 | 1009.1 |
| 20260503191528 | 71 | 313 | 12.2 | 20.0 | 0.00 | 0.03 | 0.00 | 24 | 1009.3 |
| 20260503190030 | 71 | 317 | 11.3 | 18.2 | 0.00 | 0.03 | 0.00 | 23 | 1009.4 |
| 20260503184540 | 71 | 311 | 9.6 | 19.1 | 0.00 | 0.03 | 0.00 | 25 | 1009.6 |
| 20260503183030 | 71 | 254 | 10.4 | 16.5 | 0.00 | 0.03 | 0.00 | 23 | 1009.7 |
| 20260503181531 | 70 | 286 | 12.2 | 20.9 | 0.00 | 0.03 | 0.00 | 24 | 1009.9 |
| 20260503180044 | 70 | 283 | 9.6 | 16.5 | 0.00 | 0.03 | 0.00 | 24 | 1010.0 |
| 20260503174543 | 70 | 283 | 9.6 | 17.4 | 0.00 | 0.03 | 0.00 | 27 | 1010.1 |
| 20260503173039 | 69 | 311 | 9.6 | 17.4 | 0.00 | 0.03 | 0.00 | 28 | 1010.4 |
| 20260503171529 | 68 | 301 | 4.3 | 12.2 | 0.00 | 0.03 | 0.00 | 30 | 1010.4 |